When you browse on this site, cookies collect data to enhance your experience and personalize the content and advertising you see.
Visit our Privacy Policy to learn more. By continuing to use the site, you agree to this use of cookies and data.
  • In Romania
  • List of Countries
  • For 7 days
  • Water Temperature
  • Satellite Maps
  • Weather Map
  • Weather Widgets
  • user-avatar
    Login

    Hourly Weather Rawa Mazowiecka

    Today, 19 February, Tuesday

    Time Temperature Precipitation Wind Pressure Humidity
    00:00 +3°C° 0 mm 3 mps 751 mmHg 74%
    01:00 +2°C° 0 mm 3 mps 751 mmHg 76%
    02:00 +2°C° 0 mm 3 mps 750 mmHg 77%
    03:00 +2°C° 0 mm 3 mps 750 mmHg 78%
    04:00 +1°C° 0 mm 3 mps 749 mmHg 80%
    05:00 0°C° 0 mm 4 mps 749 mmHg 79%
    06:00 0°C° 0 mm 4 mps 749 mmHg 79%
    07:00 0°C° 0 mm 4 mps 749 mmHg 79%
    08:00 +3°C° 0 mm 4 mps 748 mmHg 73%
    09:00 +3°C° 0 mm 5 mps 748 mmHg 68%
    10:00 +5°C° 0 mm 6 mps 748 mmHg 62%
    11:00 +7°C° 0 mm 6 mps 748 mmHg 59%
    12:00 +8°C° 0 mm 6 mps 747 mmHg 56%
    13:00 +9°C° 0 mm 6 mps 747 mmHg 53%
    14:00 +9°C° 0 mm 5 mps 747 mmHg 54%
    15:00 +9°C° 0 mm 5 mps 747 mmHg 56%
    16:00 +8°C° 0 mm 5 mps 746 mmHg 58%
    17:00 +8°C° 0 mm 4 mps 746 mmHg 63%
    18:00 +7°C° 0 mm 4 mps 747 mmHg 67%
    19:00 +6°C° 0 mm 4 mps 747 mmHg 72%
    20:00 +6°C° 0.4 mm 4 mps 747 mmHg 78%
    21:00 +6°C° 0.4 mm 5 mps 747 mmHg 84%
    22:00 +6°C° 0.4 mm 5 mps 747 mmHg 90%
    23:00 +5°C° 0.1 mm 4 mps 747 mmHg 87%

    Tomorrow, 20 February, Wednesday

    Time Temperature Precipitation Wind Pressure Humidity
    00:00 +5°C° 0.1 mm 4 mps 747 mmHg 83%
    01:00 +4°C° 0.1 mm 4 mps 747 mmHg 80%
    02:00 +4°C° 0 mm 4 mps 747 mmHg 83%
    03:00 +2°C° 0 mm 5 mps 747 mmHg 87%
    04:00 +2°C° 0 mm 6 mps 747 mmHg 90%
    05:00 +2°C° 0 mm 6 mps 748 mmHg 89%
    06:00 +2°C° 0 mm 6 mps 748 mmHg 88%
    07:00 +2°C° 0 mm 6 mps 749 mmHg 87%
    08:00 +3°C° 0.1 mm 6 mps 749 mmHg 82%
    09:00 +3°C° 0.1 mm 7 mps 749 mmHg 78%
    10:00 +3°C° 0.1 mm 7 mps 750 mmHg 74%
    11:00 +4°C° 0.1 mm 7 mps 750 mmHg 72%
    12:00 +4°C° 0.1 mm 8 mps 750 mmHg 69%
    13:00 +4°C° 0.1 mm 8 mps 750 mmHg 67%
    14:00 +4°C° 0.1 mm 7 mps 750 mmHg 68%
    15:00 +4°C° 0.1 mm 7 mps 751 mmHg 69%
    16:00 +4°C° 0.1 mm 6 mps 751 mmHg 70%
    17:00 +3°C° 0 mm 6 mps 751 mmHg 71%
    18:00 +3°C° 0 mm 6 mps 752 mmHg 73%
    19:00 +3°C° 0 mm 5 mps 752 mmHg 74%
    20:00 +3°C° 0 mm 5 mps 752 mmHg 76%
    21:00 +3°C° 0 mm 5 mps 752 mmHg 79%
    22:00 +4°C° 0 mm 4 mps 752 mmHg 81%
    23:00 +4°C° 0 mm 4 mps 753 mmHg 82%

    Day after tomorrow, 21 February, Thursday

    Time Temperature Precipitation Wind Pressure Humidity
    00:00 +3°C° 0 mm 4 mps 753 mmHg 83%
    01:00 +3°C° 0 mm 4 mps 753 mmHg 84%
    02:00 +3°C° 0 mm 4 mps 753 mmHg 86%
    03:00 +4°C° 0 mm 4 mps 752 mmHg 88%
    04:00 +4°C° 0 mm 4 mps 752 mmHg 90%
    05:00 +4°C° 0.2 mm 4 mps 752 mmHg 90%
    06:00 +3°C° 0.2 mm 4 mps 752 mmHg 90%
    07:00 +2°C° 0.2 mm 5 mps 752 mmHg 91%
    08:00 +3°C° 0.3 mm 5 mps 752 mmHg 89%
    09:00 +3°C° 0.3 mm 5 mps 752 mmHg 87%
    10:00 +3°C° 0.3 mm 6 mps 752 mmHg 85%
    11:00 +3°C° 0.2 mm 6 mps 752 mmHg 86%
    12:00 +3°C° 0.2 mm 6 mps 751 mmHg 86%
    13:00 +4°C° 0.2 mm 6 mps 751 mmHg 86%
    14:00 +4°C° 0.6 mm 6 mps 751 mmHg 87%
    15:00 +4°C° 0.6 mm 6 mps 751 mmHg 88%
    16:00 +3°C° 0.6 mm 6 mps 751 mmHg 89%
    17:00 +4°C° 0.6 mm 6 mps 751 mmHg 90%
    18:00 +5°C° 0.6 mm 5 mps 751 mmHg 91%
    19:00 +5°C° 0.6 mm 5 mps 751 mmHg 92%
    20:00 +5°C° 0.2 mm 5 mps 751 mmHg 93%
    21:00 +5°C° 0.2 mm 5 mps 751 mmHg 93%
    22:00 +5°C° 0.2 mm 5 mps 751 mmHg 93%
    23:00 +5°C° 0.2 mm 5 mps 752 mmHg 94%

    22 February, Friday

    Time Temperature Precipitation Wind Pressure Humidity
    00:00 +5°C° 0.2 mm 4 mps 752 mmHg 94%
    01:00 +4°C° 0.2 mm 4 mps 752 mmHg 95%
    02:00 +2°C° 0.3 mm 5 mps 753 mmHg 91%
    03:00 -1°C° 0.3 mm 6 mps 754 mmHg 88%
    04:00 -2°C° 0.3 mm 6 mps 754 mmHg 85%
    05:00 -3°C° 0 mm 6 mps 755 mmHg 81%
    06:00 -4°C° 0 mm 6 mps 756 mmHg 78%
    07:00 -4°C° 0 mm 6 mps 758 mmHg 74%
    08:00 -4°C° 0 mm 6 mps 759 mmHg 69%
    09:00 -4°C° 0 mm 6 mps 760 mmHg 64%
    10:00 -3°C° 0 mm 6 mps 761 mmHg 59%
    11:00 -3°C° 0 mm 6 mps 762 mmHg 56%
    12:00 -3°C° 0 mm 6 mps 762 mmHg 53%
    13:00 -3°C° 0 mm 6 mps 763 mmHg 49%
    14:00 -3°C° 0 mm 6 mps 764 mmHg 50%
    15:00 -2°C° 0 mm 5 mps 764 mmHg 50%
    16:00 -4°C° 0 mm 5 mps 764 mmHg 50%
    17:00 -4°C° 0 mm 5 mps 765 mmHg 51%
    18:00 -4°C° 0 mm 4 mps 766 mmHg 52%
    19:00 -4°C° 0 mm 4 mps 766 mmHg 53%
    20:00 -4°C° 0 mm 4 mps 767 mmHg 51%
    21:00 -4°C° 0 mm 3 mps 767 mmHg 50%
    22:00 -4°C° 0 mm 3 mps 768 mmHg 49%
    23:00 -3°C° 0 mm 2 mps 768 mmHg 48%

    23 February, Saturday

    Time Temperature Precipitation Wind Pressure Humidity
    00:00 -3°C° 0 mm 2 mps 768 mmHg 47%
    01:00 -3°C° 0 mm 2 mps 768 mmHg 46%
    02:00 -4°C° 0 mm 2 mps 768 mmHg 47%
    03:00 -4°C° 0 mm 2 mps 768 mmHg 47%
    04:00 -2°C° 0 mm 1 mps 768 mmHg 48%
    05:00 -2°C° 0 mm 1 mps 768 mmHg 48%
    06:00 -2°C° 0 mm 1 mps 768 mmHg 48%
    07:00 -2°C° 0 mm 1 mps 768 mmHg 48%
    08:00 -3°C° 0 mm 2 mps 768 mmHg 42%
    09:00 -2°C° 0 mm 2 mps 767 mmHg 37%
    10:00 -1°C° 0 mm 2 mps 767 mmHg 32%
    11:00 0°C° 0 mm 3 mps 767 mmHg 32%
    12:00 0°C° 0 mm 3 mps 767 mmHg 32%
    13:00 0°C° 0 mm 3 mps 766 mmHg 32%
    14:00 -1°C° 0 mm 4 mps 766 mmHg 34%
    15:00 -1°C° 0 mm 4 mps 765 mmHg 36%
    16:00 -1°C° 0 mm 4 mps 765 mmHg 38%
    17:00 -1°C° 0 mm 3 mps 764 mmHg 40%
    18:00 -1°C° 0 mm 3 mps 764 mmHg 42%
    19:00 -1°C° 0 mm 2 mps 764 mmHg 44%
    20:00 -1°C° 0 mm 2 mps 764 mmHg 46%
    21:00 -1°C° 0 mm 2 mps 764 mmHg 49%
    22:00 -2°C° 0 mm 2 mps 763 mmHg 51%
    23:00 -1°C° 0 mm 2 mps 763 mmHg 53%

    24 February, Sunday

    Time Temperature Precipitation Wind Pressure Humidity
    00:00 -1°C° 0 mm 2 mps 763 mmHg 54%
    01:00 -1°C° 0 mm 2 mps 763 mmHg 56%
    02:00 -1°C° 0 mm 2 mps 763 mmHg 62%
    03:00 -1°C° 0 mm 2 mps 763 mmHg 68%
    04:00 -1°C° 0 mm 2 mps 763 mmHg 74%
    05:00 -1°C° 0 mm 2 mps 764 mmHg 79%
    06:00 -1°C° 0 mm 2 mps 764 mmHg 85%
    07:00 -1°C° 0 mm 2 mps 764 mmHg 90%
    08:00 +1°C° 0 mm 2 mps 764 mmHg 89%
    09:00 +2°C° 0 mm 2 mps 764 mmHg 88%
    10:00 +2°C° 0 mm 2 mps 765 mmHg 88%
    11:00 +3°C° 0 mm 2 mps 764 mmHg 87%
    12:00 +3°C° 0 mm 2 mps 764 mmHg 86%
    13:00 +4°C° 0 mm 2 mps 764 mmHg 85%
    14:00 +4°C° 0 mm 2 mps 764 mmHg 87%
    15:00 +4°C° 0 mm 2 mps 764 mmHg 88%
    16:00 +3°C° 0 mm 2 mps 764 mmHg 90%
    17:00 +3°C° 0 mm 2 mps 763 mmHg 92%
    18:00 +2°C° 0 mm 2 mps 763 mmHg 93%
    19:00 +2°C° 0 mm 2 mps 763 mmHg 95%
    20:00 +2°C° 0 mm 2 mps 763 mmHg 94%
    21:00 +2°C° 0 mm 2 mps 762 mmHg 94%
    22:00 +2°C° 0 mm 2 mps 762 mmHg 94%
    23:00 +1°C° 0 mm 3 mps 762 mmHg 95%
    Show more